Torna al catalogo

SSC

AttivoMilitareLEO
NORAD 13874·PAYLOAD·🇺🇸 United States

Lanciato Feb 9, 1983 da Vandenberg Space Force Base

Loading…

Prossimi Passaggi (prossime 24 ore)

TLE

AggiornatoSource: Space-Track

Epoca: Sep 14, 2026, 13:44 UTC

1 13874U 83008H   26257.57238955  .00002092  00000-0  29885-3 0  9996
2 13874  63.3066 114.9677 0698518 138.3808 227.2633 13.81355893363993

Traccia SSC in tempo reale con AllMySat

Download on the App Store